Ogallala, NE

9:49 AM MDT on June 26, 2017 (GMT -0600)
Searle

Weather History for KOGA - April, 2012

Change the Weather History Date:

Saturday, April 7, 2012

  Actual Average Record
Temperature  
Mean Temperature 48 °F -  
Max Temperature 60 °F 63 °F 90 °F (1991)
Min Temperature 35 °F 32 °F 10 °F (2007)
Degree Days  
Heating Degree Days 18    
Moisture  
Dew Point 12 °F    
Average Humidity 28    
Maximum Humidity 66    
Minimum Humidity 11    
Precipitation  
Precipitation 0.00 in - - ()
Sea Level Pressure  
Sea Level Pressure 30.24 in    
Wind  
Wind Speed 15 mph (NW)    
Max Wind Speed 30 mph    
Max Gust Speed 39 mph    
Visibility 10 miles    
Events      
Averages and records for this station are not official NWS values.
T = Trace of Precipitation, MM = Missing Value Source: NWS Daily Summary

Daily Weather History Graph

Daily Weather History Graph

Search for Another Location

Airport or City:

Trip Planner

Search our weather history database for the weather conditions in past years. The results will help you decide how hot, cold, wet, or windy it might be!

Date:

Astronomy

Apr. 07, 2012 Rise Set
Actual Time 6:19 AM MDT 7:19 PM MDT
Civil Twilight 5:51 AM MDT 7:47 PM MDT
Nautical Twilight 5:18 AM MDT 8:20 PM MDT
Astronomical Twilight 4:43 AM MDT 8:55 PM MDT
Moon 8:57 PM MDT (4/7) 6:32 AM MDT (4/7)
Length of Visible Light 13h 55m
Length of Day
12h 59m
Full, 99% of the Moon is Illuminated
Apr 7
Full
Apr 13
Last Quarter
Apr 21
New
Apr 29
First Quarter
May 5
Full

Hourly Weather History & Observations

Time (MDT) Temp. Windchill Dew Point Humidity Pressure Visibility Wind Dir Wind Speed Gust Speed Precip Events Conditions
12:15 AM 48.4 °F - 14.2 °F 25% 30.01 in 10.0 mi NW 15.0 mph 24.2 mph N/A   Clear
12:35 AM 46.4 °F 41.5 °F 14.2 °F 27% 30.01 in 10.0 mi NW 10.4 mph - N/A   Clear
1:15 AM 47.3 °F - 12.4 °F 25% 30.04 in 10.0 mi NW 21.9 mph 27.6 mph N/A   Clear
1:55 AM 45.5 °F 37.8 °F 10.4 °F 24% 30.06 in 10.0 mi NW 19.6 mph 28.8 mph N/A   Clear
2:15 AM 44.6 °F 36.6 °F 9.5 °F 24% 30.07 in 10.0 mi NW 19.6 mph 27.6 mph N/A   Clear
2:35 AM 43.2 °F 37.4 °F 9.1 °F 25% 30.08 in 10.0 mi NW 10.4 mph - N/A   Clear
2:55 AM 43.7 °F 35.7 °F 7.7 °F 23% 30.09 in 10.0 mi NW 18.4 mph - N/A   Clear
3:15 AM 42.1 °F 35.2 °F 7.7 °F 24% 30.11 in 10.0 mi NW 12.7 mph 18.4 mph N/A   Clear
3:35 AM 41.2 °F 33.0 °F 9.0 °F 27% 30.11 in 10.0 mi NW 16.1 mph 20.7 mph N/A   Clear
3:55 AM 39.6 °F 32.5 °F 11.8 °F 32% 30.13 in 10.0 mi NW 11.5 mph - N/A   Clear
4:15 AM 37.9 °F 30.9 °F 15.1 °F 39% 30.14 in 10.0 mi NW 10.4 mph - N/A   Clear
4:35 AM 37.6 °F 30.5 °F 19.2 °F 48% 30.15 in 10.0 mi NW 10.4 mph - N/A   Clear
4:55 AM 35.8 °F 28.3 °F 20.5 °F 54% 30.16 in 10.0 mi NW 10.4 mph - N/A   Clear
5:15 AM 36.7 °F 28.4 °F 24.6 °F 62% 30.18 in 10.0 mi NW 12.7 mph 16.1 mph N/A   Clear
5:35 AM 35.1 °F 29.3 °F 24.8 °F 66% 30.18 in 10.0 mi NW 6.9 mph - N/A   Clear
5:55 AM 35.1 °F 27.9 °F 24.6 °F 66% 30.19 in 10.0 mi NW 9.2 mph - N/A   Clear
6:15 AM 37.0 °F 28.5 °F 24.1 °F 59% 30.19 in 10.0 mi NW 13.8 mph 19.6 mph N/A   Clear
6:35 AM 37.6 °F 25.2 °F 24.6 °F 60% 30.19 in 10.0 mi NW 29.9 mph 34.5 mph N/A   Clear
6:55 AM 37.9 °F 27.3 °F 24.6 °F 59% 30.22 in 10.0 mi NW 21.9 mph 29.9 mph N/A   Clear
7:15 AM 38.3 °F 29.0 °F 24.8 °F 58% 30.24 in 10.0 mi NW 17.3 mph - N/A   Clear
7:35 AM 39.2 °F 30.8 °F 24.1 °F 55% 30.27 in 10.0 mi NNW 15.0 mph 21.9 mph N/A   Clear
7:55 AM 40.1 °F 31.6 °F 22.8 °F 50% 30.28 in 10.0 mi NW 16.1 mph - N/A   Clear
8:15 AM 41.2 °F 32.4 °F 23.9 °F 50% 30.28 in 10.0 mi NNW 18.4 mph 21.9 mph N/A   Clear
8:35 AM 43.3 °F 35.2 °F 23.2 °F 45% 30.29 in 10.0 mi NW 18.4 mph 25.3 mph N/A   Clear
8:55 AM 45.1 °F 36.0 °F 18.7 °F 35% 30.30 in 10.0 mi NW 26.5 mph 32.2 mph N/A   Clear
9:15 AM 46.2 °F 37.7 °F 16.2 °F 30% 30.31 in 10.0 mi NW 25.3 mph 32.2 mph N/A   Clear
9:35 AM 47.5 °F - 14.9 °F 27% 30.32 in 10.0 mi NW 24.2 mph 27.6 mph N/A   Clear
9:55 AM 49.6 °F - 13.8 °F 24% 30.33 in 10.0 mi NW 20.7 mph 26.5 mph N/A   Clear
10:35 AM 50.5 °F - 11.7 °F 21% 30.33 in 10.0 mi NNW 20.7 mph 26.5 mph N/A   Clear
10:55 AM 52.3 °F - 9.9 °F 18% 30.33 in 10.0 mi WNW 26.5 mph 34.5 mph N/A   Clear
11:15 AM 53.1 °F - 8.1 °F 16% 30.34 in 10.0 mi WNW 27.6 mph 35.7 mph N/A   Clear
11:35 AM 54.0 °F - 7.9 °F 16% 30.33 in 10.0 mi NW 27.6 mph 34.5 mph N/A   Clear
11:55 AM 54.5 °F - 10.0 °F 17% 30.33 in 10.0 mi NW 18.4 mph 32.2 mph N/A   Clear
12:15 PM 55.6 °F - 8.4 °F 15% 30.32 in 10.0 mi WNW 24.2 mph 39.1 mph N/A   Clear
12:35 PM 55.2 °F - 10.8 °F 17% 30.33 in 10.0 mi NW 15.0 mph 31.1 mph N/A   Clear
12:55 PM 54.9 °F - 10.4 °F 17% 30.32 in 10.0 mi NW 15.0 mph 21.9 mph N/A   Clear
1:15 PM 55.0 °F - 10.9 °F 17% 30.32 in 10.0 mi NNW 16.1 mph 21.9 mph N/A   Clear
1:35 PM 56.7 °F - 10.2 °F 16% 30.32 in 10.0 mi NNW 12.7 mph 23.0 mph N/A   Clear
1:55 PM 57.4 °F - 10.2 °F 15% 30.31 in 10.0 mi NW 13.8 mph 26.5 mph N/A   Clear
2:15 PM 57.0 °F - 11.1 °F 16% 30.32 in 10.0 mi NNW 9.2 mph 23.0 mph N/A   Clear
2:55 PM 59.0 °F - 9.3 °F 14% 30.31 in 10.0 mi WNW 13.8 mph 25.3 mph N/A   Clear
3:15 PM 59.5 °F - 9.0 °F 14% 30.30 in 10.0 mi NW 20.7 mph 26.5 mph N/A   Clear
3:35 PM 59.5 °F - 8.1 °F 13% 30.30 in 10.0 mi NNW 15.0 mph 21.9 mph N/A   Clear
3:55 PM 60.3 °F - 5.9 °F 11% 30.30 in 10.0 mi NW 12.7 mph 18.4 mph N/A   Clear
4:15 PM 59.2 °F - 4.8 °F 11% 30.29 in 10.0 mi North 5.8 mph 12.7 mph N/A   Clear
4:35 PM 59.4 °F - 4.3 °F 11% 30.28 in 10.0 mi NNW 12.7 mph 20.7 mph N/A   Clear
4:55 PM 59.7 °F - 3.7 °F 11% 30.28 in 10.0 mi NW 12.7 mph 16.1 mph N/A   Clear
5:15 PM 59.0 °F - 3.0 °F 11% 30.28 in 10.0 mi NNW 8.1 mph - N/A   Clear
5:35 PM 58.5 °F - 3.6 °F 11% 30.28 in 10.0 mi Calm Calm - N/A   Clear
5:55 PM 58.1 °F - 2.8 °F 11% 30.28 in 10.0 mi Calm Calm - N/A   Clear
6:15 PM 57.6 °F - 2.1 °F 11% 30.28 in 10.0 mi Calm Calm - N/A   Clear
6:35 PM 57.0 °F - 3.9 °F 12% 30.28 in 10.0 mi Calm Calm - N/A   Clear
7:15 PM 53.4 °F - 3.9 °F 13% 30.27 in 10.0 mi Calm Calm - N/A   Clear
7:35 PM 49.3 °F - 3.9 °F 16% 30.28 in 10.0 mi Calm Calm - N/A   Clear
7:55 PM 47.7 °F - 5.4 °F 18% 30.28 in 10.0 mi Calm Calm - N/A   Clear
8:15 PM 45.1 °F - 6.6 °F 21% 30.29 in 10.0 mi Calm Calm - N/A   Clear
8:35 PM 40.3 °F - 8.1 °F 27% 30.30 in 10.0 mi Calm Calm - N/A   Clear
8:55 PM 40.6 °F - 6.3 °F 24% 30.31 in 10.0 mi Calm Calm - N/A   Clear
9:15 PM 36.0 °F - 6.8 °F 30% 30.31 in 10.0 mi Calm Calm - N/A   Clear
9:35 PM 34.5 °F - 9.1 °F 35% 30.30 in 10.0 mi Calm Calm - N/A   Clear
9:55 PM 36.7 °F - 7.7 °F 30% 30.31 in 10.0 mi Calm Calm - N/A   Clear
10:15 PM 39.2 °F - 7.9 °F 27% 30.32 in 10.0 mi Calm Calm - N/A   Clear
10:35 PM 42.1 °F - 8.4 °F 25% 30.32 in 10.0 mi Calm Calm - N/A   Clear
10:55 PM 41.0 °F - 9.1 °F 27% 30.32 in 10.0 mi Calm Calm - N/A   Clear
11:15 PM 38.7 °F 35.2 °F 10.0 °F 31% 30.31 in 10.0 mi South 4.6 mph - N/A   Clear
11:55 PM 37.8 °F - 12.2 °F 35% 30.32 in 10.0 mi Calm Calm - N/A   Clear